| time (UTC) | temp F | wind direction | speed knots | gust knots | rain 1hr in | rain 24hr in | rain mn in | humidity % | barometer mb |
| 20260507133433 | 67 | 45 | 4.3 | 7.8 | 0.00 | 0.00 | 0.00 | 72 | 1014.0 |
| 20260507132430 | 68 | 99 | 7.0 | 14.8 | 0.00 | 0.00 | 0.00 | 67 | 1014.1 |
| 20260507131426 | 68 | 51 | 5.2 | 9.6 | 0.00 | 0.00 | 0.00 | 62 | 1014.0 |
| 20260507130423 | 67 | 65 | 3.5 | 7.8 | 0.00 | 0.00 | 0.00 | 63 | 1014.2 |
| 20260507125420 | 68 | 58 | 4.3 | 14.8 | 0.00 | 0.00 | 0.00 | 65 | 1014.2 |
| 20260507124517 | 66 | 60 | 7.0 | 11.3 | 0.00 | 0.00 | 0.00 | 67 | 1014.4 |
| 20260507123513 | 66 | 28 | 2.6 | 3.5 | 0.00 | 0.00 | 0.00 | 66 | 1014.4 |
| 20260507122530 | 66 | 60 | 3.5 | 7.0 | 0.00 | 0.00 | 0.00 | 70 | 1014.4 |
| 20260507121507 | 65 | 41 | 3.5 | 5.2 | 0.00 | 0.00 | 0.00 | 73 | 1014.6 |
| 20260507120504 | 64 | 45 | 4.3 | 7.8 | 0.00 | 0.00 | 0.00 | 76 | 1014.7 |
| 20260507115501 | 64 | 45 | 2.6 | 6.1 | 0.00 | 0.00 | 0.00 | 77 | 1015.0 |
| 20260507114457 | 64 | 96 | 6.1 | 9.6 | 0.00 | 0.00 | 0.00 | 76 | 1015.1 |
| 20260507113454 | 64 | 23 | 3.5 | 7.8 | 0.00 | 0.00 | 0.00 | 77 | 1015.1 |
| 20260507112451 | 64 | 29 | 4.3 | 9.6 | 0.00 | 0.00 | 0.00 | 76 | 1015.2 |
| 20260507111449 | 64 | 75 | 7.0 | 13.9 | 0.00 | 0.00 | 0.00 | 78 | 1015.5 |
| 20260507110444 | 65 | 30 | 3.5 | 7.8 | 0.00 | 0.00 | 0.00 | 78 | 1015.6 |
| 20260507105442 | 66 | 45 | 2.6 | 6.1 | 0.00 | 0.00 | 0.00 | 77 | 1015.6 |
| 20260507104438 | 65 | 45 | 2.6 | 3.5 | 0.00 | 0.00 | 0.00 | 69 | 1015.6 |
| 20260507103435 | 65 | 23 | 3.5 | 9.6 | 0.00 | 0.00 | 0.00 | 76 | 1015.5 |
| 20260507102433 | 65 | 68 | 5.2 | 11.3 | 0.00 | 0.00 | 0.00 | 76 | 1015.6 |
| 20260507101449 | 66 | 23 | 6.1 | 12.2 | 0.00 | 0.00 | 0.00 | 73 | 1015.6 |
| 20260507100426 | 68 | 45 | 5.2 | 12.2 | 0.00 | 0.00 | 0.00 | 66 | 1015.3 |
| 20260507095422 | 68 | 360 | 2.6 | 7.0 | 0.00 | 0.00 | 0.00 | 65 | 1015.4 |
| 20260507094419 | 67 | 94 | 5.2 | 9.6 | 0.00 | 0.00 | 0.00 | 69 | 1015.4 |
| 20260507093415 | 68 | 79 | 5.2 | 15.6 | 0.00 | 0.00 | 0.00 | 68 | 1015.5 |
| 20260507092512 | 68 | 86 | 2.6 | 6.1 | 0.00 | 0.00 | 0.00 | 68 | 1015.4 |
| 20260507091509 | 65 | 23 | 5.2 | 7.0 | 0.00 | 0.00 | 0.00 | 71 | 1015.4 |
| 20260507090526 | 66 | 63 | 4.3 | 9.6 | 0.00 | 0.00 | 0.00 | 71 | 1015.2 |
| 20260507085503 | 67 | 75 | 1.7 | 3.5 | 0.00 | 0.00 | 0.00 | 72 | 1015.2 |
| 20260507084501 | 66 | 45 | 3.5 | 7.8 | 0.00 | 0.00 | 0.00 | 73 | 1015.2 |
| 20260507083456 | 67 | 23 | 1.7 | 3.5 | 0.00 | 0.00 | 0.00 | 74 | 1015.2 |
| 20260507082453 | 65 | 62 | 2.6 | 7.0 | 0.00 | 0.00 | 0.00 | 75 | 1015.2 |
| 20260507081451 | 65 | 62 | 4.3 | 7.8 | 0.00 | 0.00 | 0.00 | 74 | 1015.2 |
| 20260507080448 | 65 | 33 | 2.6 | 5.2 | 0.00 | 0.00 | 0.00 | 72 | 1015.2 |
| 20260507075445 | 65 | 68 | 4.3 | 9.6 | 0.00 | 0.00 | 0.00 | 70 | 1015.2 |
| 20260507074441 | 64 | 31 | 0.9 | 3.5 | 0.00 | 0.00 | 0.00 | 68 | 1015.2 |
| 20260507073438 | 63 | 45 | 1.7 | 3.5 | 0.00 | 0.00 | 0.00 | 66 | 1015.2 |
| 20260507072434 | 65 | 68 | 0.9 | 1.7 | 0.00 | 0.00 | 0.00 | 64 | 1015.1 |
| 20260507071453 | 62 | 23 | 0.9 | 3.5 | 0.00 | 0.00 | 0.00 | 64 | 1015.0 |
| 20260507070427 | 63 | 58 | 1.7 | 5.2 | 0.00 | 0.00 | 0.00 | 63 | 1014.8 |
| 20260507065424 | 63 | 342 | 0.9 | 1.7 | 0.00 | 0.00 | 0.00 | 61 | 1014.8 |
| 20260507064421 | 63 | 270 | 0.0 | 1.7 | 0.00 | 0.00 | 0.00 | 63 | 1014.7 |
| 20260507063419 | 62 | 0.0 | 1.7 | 0.00 | 0.00 | 0.00 | 65 | 1014.7 | |
| 20260507062516 | 62 | 0.0 | 0.0 | 0.00 | 0.00 | 0.00 | 67 | 1014.6 | |
| 20260507061511 | 60 | 270 | 0.0 | 1.7 | 0.00 | 0.00 | 0.00 | 73 | 1014.6 |
| 20260507060528 | 58 | 270 | 1.7 | 1.7 | 0.00 | 0.00 | 0.00 | 76 | 1014.4 |
| 20260507055505 | 57 | 270 | 0.9 | 1.7 | 0.00 | 0.00 | 0.00 | 77 | 1014.4 |
| 20260507054503 | 57 | 270 | 0.9 | 1.7 | 0.00 | 0.00 | 0.00 | 78 | 1014.5 |
| 20260507053459 | 56 | 256 | 0.9 | 1.7 | 0.00 | 0.00 | 0.00 | 79 | 1014.4 |
| 20260507052455 | 56 | 248 | 0.9 | 1.7 | 0.00 | 0.00 | 0.00 | 80 | 1014.3 |
| 20260507051453 | 56 | 248 | 1.7 | 1.7 | 0.00 | 0.00 | 0.00 | 80 | 1014.4 |
| 20260507050509 | 55 | 248 | 1.7 | 3.5 | 0.00 | 0.00 | 0.00 | 80 | 1014.3 |
| 20260507045445 | 56 | 232 | 1.7 | 3.5 | 0.00 | 0.00 | 0.00 | 79 | 1013.9 |
| 20260507044442 | 56 | 225 | 0.9 | 1.7 | 0.00 | 0.00 | 0.00 | 78 | 1013.8 |
| 20260507043439 | 56 | 248 | 1.7 | 1.7 | 0.00 | 0.00 | 0.00 | 77 | 1013.8 |
| 20260507042436 | 56 | 258 | 0.9 | 1.7 | 0.00 | 0.00 | 0.00 | 77 | 1013.7 |
| 20260507041432 | 57 | 270 | 0.0 | 1.7 | 0.00 | 0.00 | 0.00 | 76 | 1013.7 |
| 20260507040430 | 57 | 300 | 0.9 | 1.7 | 0.00 | 0.00 | 0.00 | 74 | 1013.8 |
| 20260507035426 | 58 | 263 | 1.7 | 1.7 | 0.00 | 0.00 | 0.00 | 74 | 1013.7 |
| 20260507034423 | 58 | 293 | 1.7 | 3.5 | 0.00 | 0.00 | 0.00 | 74 | 1013.7 |
| 20260507033420 | 58 | 270 | 0.9 | 1.7 | 0.00 | 0.00 | 0.00 | 74 | 1013.8 |
| 20260507032437 | 58 | 0.0 | 0.0 | 0.00 | 0.00 | 0.00 | 73 | 1014.0 | |
| 20260507031536 | 58 | 293 | 1.7 | 1.7 | 0.00 | 0.00 | 0.00 | 73 | 1014.0 |
| 20260507030511 | 58 | 279 | 2.6 | 5.2 | 0.00 | 0.00 | 0.00 | 74 | 1014.1 |
| 20260507025507 | 58 | 270 | 0.9 | 3.5 | 0.00 | 0.00 | 0.00 | 75 | 1014.2 |
| 20260507024503 | 58 | 293 | 0.9 | 3.5 | 0.00 | 0.00 | 0.00 | 76 | 1014.3 |
| 20260507023500 | 58 | 270 | 2.6 | 3.5 | 0.00 | 0.00 | 0.00 | 76 | 1014.2 |
| 20260507022458 | 58 | 265 | 2.6 | 3.5 | 0.00 | 0.00 | 0.00 | 76 | 1014.2 |
| 20260507021514 | 58 | 270 | 3.5 | 5.2 | 0.00 | 0.00 | 0.00 | 75 | 1014.2 |
| 20260507020450 | 58 | 270 | 2.6 | 3.5 | 0.00 | 0.00 | 0.00 | 75 | 1014.2 |
| 20260507015448 | 58 | 270 | 1.7 | 1.7 | 0.00 | 0.00 | 0.00 | 76 | 1014.2 |
| 20260507014444 | 58 | 260 | 0.9 | 1.7 | 0.00 | 0.00 | 0.00 | 77 | 1014.3 |
| 20260507013441 | 58 | 260 | 0.9 | 1.7 | 0.00 | 0.00 | 0.00 | 76 | 1014.4 |
| 20260507012438 | 59 | 287 | 2.6 | 3.5 | 0.00 | 0.00 | 0.00 | 75 | 1014.4 |
| 20260507011434 | 59 | 248 | 1.7 | 1.7 | 0.00 | 0.00 | 0.00 | 75 | 1014.4 |
| 20260507010431 | 59 | 240 | 1.7 | 1.7 | 0.00 | 0.00 | 0.00 | 75 | 1014.4 |
| 20260507005428 | 59 | 0.0 | 0.0 | 0.00 | 0.00 | 0.00 | 75 | 1014.4 | |
| 20260507004425 | 59 | 270 | 1.7 | 1.7 | 0.00 | 0.00 | 0.00 | 75 | 1014.5 |
| 20260507003421 | 60 | 264 | 2.6 | 3.5 | 0.00 | 0.00 | 0.00 | 73 | 1014.7 |
| 20260507002418 | 61 | 315 | 1.7 | 3.5 | 0.00 | 0.00 | 0.00 | 72 | 1014.6 |
| 20260507001415 | 60 | 338 | 1.7 | 1.7 | 0.00 | 0.00 | 0.00 | 75 | 1014.7 |
| 20260507000511 | 60 | 0.0 | 0.0 | 0.00 | 0.00 | 0.00 | 75 | 1014.9 | |
| 20260506235508 | 61 | 0.0 | 0.0 | 0.00 | 0.00 | 0.00 | 75 | 1014.9 | |
| 20260506234505 | 61 | 255 | 0.9 | 1.7 | 0.00 | 0.00 | 0.00 | 75 | 1015.1 |
| 20260506233502 | 61 | 270 | 1.7 | 1.7 | 0.00 | 0.00 | 0.00 | 74 | 1015.0 |
| 20260506232459 | 62 | 270 | 0.9 | 1.7 | 0.00 | 0.00 | 0.00 | 73 | 1015.1 |
| 20260506231455 | 62 | 293 | 1.7 | 1.7 | 0.00 | 0.00 | 0.00 | 72 | 1015.2 |
| 20260506230454 | 62 | 338 | 0.9 | 1.7 | 0.00 | 0.00 | 0.00 | 72 | 1015.2 |
| 20260506225449 | 62 | 315 | 1.7 | 1.7 | 0.00 | 0.00 | 0.00 | 72 | 1015.2 |
| 20260506224446 | 62 | 330 | 0.9 | 1.7 | 0.00 | 0.00 | 0.00 | 72 | 1015.2 |
| 20260506223443 | 62 | 334 | 0.9 | 1.7 | 0.00 | 0.00 | 0.00 | 71 | 1015.2 |
| 20260506222441 | 62 | 330 | 1.7 | 3.5 | 0.00 | 0.00 | 0.00 | 71 | 1015.2 |
| 20260506221437 | 62 | 330 | 0.9 | 1.7 | 0.00 | 0.00 | 0.00 | 71 | 1015.1 |
| 20260506220434 | 62 | 315 | 0.0 | 1.7 | 0.00 | 0.00 | 0.00 | 71 | 1015.2 |
| 20260506215430 | 62 | 0.0 | 1.7 | 0.00 | 0.00 | 0.00 | 70 | 1015.3 | |
| 20260506214427 | 63 | 323 | 0.9 | 3.5 | 0.00 | 0.00 | 0.00 | 70 | 1015.2 |
| 20260506213423 | 63 | 0.0 | 0.0 | 0.00 | 0.00 | 0.00 | 70 | 1015.1 | |
| 20260506212420 | 63 | 15 | 0.9 | 1.7 | 0.00 | 0.00 | 0.00 | 69 | 1015.0 |
| 20260506211417 | 64 | 0.0 | 0.0 | 0.00 | 0.00 | 0.00 | 67 | 1015.0 | |
| 20260506210515 | 64 | 45 | 0.9 | 1.7 | 0.00 | 0.00 | 0.00 | 67 | 1014.8 |
| 20260506205512 | 64 | 68 | 1.7 | 3.5 | 0.00 | 0.00 | 0.00 | 68 | 1014.7 |
| 20260506204507 | 64 | 90 | 1.7 | 5.2 | 0.00 | 0.00 | 0.00 | 68 | 1014.7 |
| 20260506203526 | 64 | 60 | 3.5 | 6.1 | 0.00 | 0.00 | 0.00 | 68 | 1014.6 |
| 20260506202501 | 64 | 90 | 1.7 | 3.5 | 0.00 | 0.00 | 0.00 | 69 | 1014.5 |
| 20260506201459 | 64 | 51 | 1.7 | 3.5 | 0.00 | 0.00 | 0.00 | 69 | 1014.3 |
| 20260506200516 | 64 | 99 | 3.5 | 5.2 | 0.00 | 0.00 | 0.00 | 68 | 1014.3 |
| 20260506195513 | 64 | 90 | 3.5 | 5.2 | 0.00 | 0.00 | 0.00 | 68 | 1014.2 |
| 20260506194448 | 64 | 90 | 2.6 | 3.5 | 0.00 | 0.00 | 0.00 | 68 | 1014.1 |
| 20260506193446 | 64 | 81 | 3.5 | 5.2 | 0.00 | 0.00 | 0.00 | 68 | 1014.0 |
| 20260506192443 | 64 | 58 | 3.5 | 7.0 | 0.00 | 0.00 | 0.00 | 68 | 1013.9 |
| 20260506191438 | 64 | 68 | 5.2 | 7.8 | 0.00 | 0.00 | 0.00 | 69 | 1013.8 |
| 20260506190435 | 64 | 68 | 5.2 | 7.8 | 0.00 | 0.00 | 0.00 | 68 | 1013.7 |
| 20260506185453 | 64 | 54 | 5.2 | 9.6 | 0.00 | 0.00 | 0.00 | 68 | 1013.7 |
| 20260506184429 | 64 | 68 | 4.3 | 7.0 | 0.00 | 0.00 | 0.00 | 68 | 1013.6 |
| 20260506183426 | 64 | 90 | 5.2 | 7.8 | 0.00 | 0.00 | 0.00 | 67 | 1013.4 |
| 20260506182422 | 65 | 80 | 3.5 | 3.5 | 0.00 | 0.00 | 0.00 | 67 | 1013.5 |
| 20260506181419 | 64 | 54 | 4.3 | 7.0 | 0.00 | 0.00 | 0.00 | 66 | 1013.3 |
| 20260506180416 | 64 | 90 | 5.2 | 7.8 | 0.00 | 0.00 | 0.00 | 67 | 1013.2 |
| 20260506175513 | 65 | 59 | 5.2 | 7.8 | 0.00 | 0.00 | 0.00 | 67 | 1013.1 |
| 20260506174510 | 65 | 127 | 5.2 | 11.3 | 0.00 | 0.00 | 0.00 | 67 | 1013.2 |
| 20260506173506 | 65 | 83 | 7.8 | 9.6 | 0.00 | 0.00 | 0.00 | 67 | 1013.2 |
| 20260506172503 | 65 | 69 | 5.2 | 9.6 | 0.00 | 0.00 | 0.00 | 67 | 1013.3 |
| 20260506171501 | 65 | 68 | 7.0 | 11.3 | 0.00 | 0.00 | 0.00 | 67 | 1013.4 |
| 20260506170538 | 65 | 68 | 6.1 | 9.6 | 0.00 | 0.00 | 0.00 | 67 | 1013.4 |
| 20260506165453 | 65 | 53 | 6.1 | 9.6 | 0.00 | 0.00 | 0.00 | 67 | 1013.5 |
| 20260506164452 | 65 | 56 | 5.2 | 12.2 | 0.00 | 0.00 | 0.00 | 67 | 1013.6 |
| 20260506163507 | 65 | 29 | 7.0 | 11.3 | 0.00 | 0.00 | 0.00 | 68 | 1013.5 |
| 20260506162444 | 65 | 68 | 8.7 | 13.0 | 0.00 | 0.00 | 0.00 | 67 | 1013.5 |
| 20260506161442 | 65 | 51 | 7.8 | 14.8 | 0.00 | 0.00 | 0.00 | 67 | 1013.4 |
| 20260506160439 | 65 | 96 | 7.8 | 13.0 | 0.00 | 0.00 | 0.00 | 67 | 1013.4 |
| 20260506155455 | 64 | 68 | 6.1 | 15.6 | 0.00 | 0.00 | 0.00 | 66 | 1013.6 |
| 20260506154511 | 66 | 68 | 7.8 | 12.2 | 0.00 | 0.00 | 0.00 | 65 | 1013.6 |
| 20260506153449 | 65 | 74 | 8.7 | 13.0 | 0.00 | 0.00 | 0.00 | 66 | 1013.4 |
| 20260506152426 | 64 | 79 | 12.2 | 15.6 | 0.00 | 0.00 | 0.00 | 67 | 1013.4 |
| 20260506151443 | 65 | 55 | 7.8 | 13.0 | 0.00 | 0.00 | 0.00 | 66 | 1013.0 |
| 20260506150418 | 65 | 68 | 7.8 | 12.2 | 0.00 | 0.00 | 0.00 | 67 | 1013.4 |
| 20260506145415 | 65 | 110 | 7.0 | 12.2 | 0.00 | 0.00 | 0.00 | 66 | 1013.8 |
| 20260506144513 | 65 | 99 | 6.1 | 9.6 | 0.00 | 0.00 | 0.00 | 64 | 1013.8 |
| 20260506143508 | 65 | 96 | 7.0 | 12.2 | 0.00 | 0.00 | 0.00 | 65 | 1013.7 |
| 20260506142525 | 65 | 120 | 6.1 | 11.3 | 0.00 | 0.00 | 0.00 | 66 | 1013.8 |
| 20260506141502 | 65 | 62 | 5.2 | 12.2 | 0.00 | 0.00 | 0.00 | 67 | 1013.9 |
| 20260506140500 | 65 | 126 | 7.0 | 11.3 | 0.00 | 0.00 | 0.00 | 66 | 1013.9 |
| 20260506135517 | 66 | 182 | 6.1 | 13.0 | 0.00 | 0.00 | 0.00 | 67 | 1013.8 |
| 20260506134452 | 66 | 74 | 7.8 | 13.0 | 0.00 | 0.00 | 0.00 | 65 | 1013.8 |